Location: Skalnate Pleso
(49.1889°N, 20.2450°E)
Time: 04:14:54
(UTC+02:00)

Cosmos 1605 Rocket - Pass Details

Date: 28 February 2020
Orbit: 944 x 1007 km, 82.9° (Epoch: 08 April)

Event Time Altitude Azimuth Distance (km) Brightness Sun altitude
Rises 02:41:04 0° 351° (N) 3,673 7.3 -35.9°
Reaches altitude 10° 02:43:37 10° 353° (N) 2,713 6.6 -35.6°
Enters shadow 02:47:04 35° 0° (N) 1,499 5.1 -35.1°
